Showing default

LEMUR 2 VALHALLA, 58900

Orbit data source: Space-Track

LEMUR 2 VALHALLA, 58900 is an American payload satellite in SSO that was launched on Wed, 31 Jan 2024 UTC via an ELECTRON launch vehicle from the Rocket Lab Launch Complex (RLLC). Payload-class satellites include a variety of spacecraft equipped with specific instruments for various scientific and technological missions. These include communications satellites like Starlink; space stations such as the ISS; scientific satellites like the Hubble; Earth observation satellites from companies like Planet Labs, Umbra, and HawkEye 360; GPS; miniature CubeSats for education and research; and military/defense satellites.

Loading next visibility...
Identifier
58900, 2024-022B
Orbit
SSO
Country
Flag of USUS
Related business
Manufacturer
Spire/Glasgow
Mission
Operational Commercial Early Warn
Bus & Motor
CUBESAT 3U, Unknown motor
Mass
~25 kg wet, ~25 kg dry
Launch date (UTC)
2024-01-31 (2 years ago)
Launch vehicle
ELECTRON
Launch site
Rocket Lab Launch Complex (RLLC)
Object type
Payload
Rocket body
Debris
Shape & HBR
Box + 2 Pan, 0.5 m
Radar Cross Section
0.146 m², Medium (>0.1 m² and < 1m²)

Expand to show TLE details & history
Last TLE update: 20 hours ago

TLE from 20 hours ago
0 LEMUR 2 VALHALLA
1 58900U 24022B   26067.82400922  .00022510  00000-0  63206-3 0  9990
2 58900  97.4228 276.7632 0011207 112.1590 248.0844 15.36493488116840
Epoch: 2026-03-08T19:46Z
TLE epoch observation values (Epoch: 2026-03-08T19:46:34.396Z)
Latitude
-0.00008°
Longitude
173.59413°
Altitude
462.467 km
Speed
7.634 km/s
True Right ascension
18h 27m 03s
True Declination
0° 00' 00"
Sunlit
Object was in daylight at epoch
Visualization orbit readout
Latitude
Unknown
Longitude
Unknown
Altitude
Unknown
Speed
Unknown
Apparent Right ascension
Unknown
Apparent Declination
Unknown
Sunlit
N/A
Visualization observer readout
Local Sidereal Time
19:50:14
Azimuth
Unknown
Elevation
Unknown
Doppler factor
Unknown
Orbital elements
Apogee altitude
461.089 km
Perigee altitude
445.776 km
Semi-major axis
6,831.57 km
Eccentricity
0.00112
Inclination
97.4228°
RAAN
276.7632°
Arg. of periapsis
112.159°
True anomaly
247.96532°
Mean anomaly
248.0844°
Eccentric anomaly
248.02485°
Mean motion
3.84381 °/min
Orbital period
93.66 mins
BSTAR
0.00063206
Loading maneuver chart data...
Computing Atmospheric mass density...
Loading historical data...
Loading historical data...
Loading historical data...
Loading historical data...
Loading historical data...
Loading historical data...
Loading historical data...

Documentation

Showing up to 5 results
|